ダレスト彗星

6P/d'Arrest (2008)

English version
Home page
Updated on March 11, 2009

---------------------------------------------------------------------

・ プロフィール

・ 写真集

・ 軌道要素

Epoch 2008 Aug. 2.0 TT = JDT 2454680.5
T 2008 Aug. 14.95983 TT                                 MPC
q   1.3535073            (2000.0)            P               Q
n   0.15079876     Peri.  178.12009     +0.73325600     +0.64356964
a   3.4957272      Node   138.93575     -0.62812237     +0.76470318
e   0.6128109      Incl.   19.51483     -0.26038036     -0.03235986
P   6.54
From 334 observations 1995-2008, mean residual 0".68.  Nongravitational
   parameters A1 = +0.81 +/- 0.03, A2 = +0.0982 +/- 0.0008.

・ 星図

・ 光度変化

        m1 = 16.0 + 5 logΔ +  5.0 log r          [   ,-75]  (              〜2008年 5月31日)
        m1 =  3.5 + 5 logΔ + 45.0 log r(t - 60)  [-75,210]  (2008年 5月31日〜2009年 3月12日)
        m1 = 16.0 + 5 logΔ +  5.0 log r          [210,   ]  (2009年 3月12日〜              )

---------------------------------------------------------------------

軌道要素はM.P.E.C. 2008-J23に掲載されたものです。
星図は StellaNavigator Ver.2.0 for Windows (アストロアーツ 編著 / アスキー出版局刊) で作成したものです。
光度グラフはComet for Windowsで作成したものです。

---------------------------------------------------------------------

Copyright(C) Seiichi Yoshida (comet@aerith.net). All rights reserved.